2 Line ISS Keps 1-27
27 Jan
2009
27 Jan
'09
6:41 a.m.
ISS 1 25544U 98067A 09027.19841559 .00009198 00000-0 77646-4 0 1500 2 25544 051.6433 308.7347 0007770 315.2448 193.1079 15.70605173583779
5853
Age (days ago)
5853
Last active (days ago)
0 comments
1 participants
participants (1)
-
Dave Larsen PhD